Regional Weather Roundup
Issued by NWS

Home | Current Version | Previous Version | Text Only | Print | Product List | Glossary On
Versions: 1 2 3 4 5 6 7 8 9 10 11 12 13 14 15 16 17 18 19 20 21 22 23 24 25 26 27 28 29 30 31 32 33 34 35 36 37 38 39 40 41 42 43 44 45 46 47 48 49 50
000
ASUS42 KTBW 010310
RWRFL
FLORIDA REGIONAL WEATHER ROUNDUP
NATIONAL WEATHER SERVICE TAMPA BAY RUSKIN FL
1000 PM EST SAT FEB 28 2015

NOTE: "FAIR" INDICATES FEW OR NO CLOUDS BELOW 12,000 FEET WITH NO
SIGNIFICANT WEATHER AND/OR OBSTRUCTIONS TO VISIBILITY.


FLZ001>010-012>015-112-114-115-010400-
PANHANDLE FLORIDA

CITY           SKY/WX    TMP DP  RH WIND       PRES   REMARKS
PENSACOLA      CLOUDY    52  48  86 NE7       30.41R
PENSACOLA NAS  CLOUDY    53  49  86 E13       30.40R
MILTON NAS     CLOUDY    51  47  86 E10       30.42R
CRESTVIEW      CLOUDY    49  46  90 E9        30.44R WCI  45
DUKE FIELD     CLOUDY    48  46  93 NE5       30.41S
VALPARAISO     CLOUDY    50  48  92 NE8       30.41R
MARY ESTHER    CLOUDY    51  46  85 NE9       30.40R
TRI COUNTY     CLOUDY    47  44  90 NE9       30.46R WCI  43
PANAMA CITY    CLOUDY    49  46  90 NE10      30.41R WCI  45
TYNDALL AFB    CLOUDY    51  47  89 NE13G21   30.40R
APALACHICOLA   LGT RAIN  53  49  86 E13       30.40R

STATION/POSITION SKY/WX   TEMP    WIND        PRES    WAVE   SWELL
                          AIR SEA DIR/SP/G            HT/PER HT/PER
                          (F)     (DEG/KT/KT) (MB)    (FT/S) (FT/S)
30.1N   87.6W              57 61   70/ 17/ 21 1028.3R   5/ 7   2/14
29.2N   88.2W              63 70   90/ 17/ 19 1027.9R   5/ 7
28.7N   86.0W              62 68   90/ 21/ 27 1027.2R   9/ 8
PANAMA CITY BEAC           50 56   70/  9/ 19 1029.4R
CAPE SAN BLAS    NOT AVBL
TOWER C                    54      60/ 25/ 27 1028.8R
28.5N   84.5W              60 65   70/ 21/ 25 1027.1F   6/ 7

$$
FLZ011-016>038-118-127-128-134-139-239-010400-
NORTH FLORIDA

CITY           SKY/WX    TMP DP  RH WIND       PRES   REMARKS
MARIANNA       CLOUDY    47  45  93 E14       30.45S WCI  41
TALLAHASSEE    CLOUDY    49  44  83 E9        30.46R WCI  45
PERRY          RAIN      47  47  97 NE7       30.46R WCI  44
CROSS CITY       N/A     52  49  89 NE8       30.42R
LAKE CITY      DRIZZLE   45  45 100 NE9       30.46R WCI  40
GAINESVILLE    CLOUDY    51  51 100 N9        30.44R
MAYPORT NAS    CLOUDY    53  51  93 N18G26    30.44S FOG
JACKSONVILLE   CLOUDY    50  50 100 N12       30.47R FOG
JAX NAS        CLOUDY    53  49  86 N15       30.47R FOG
JAX CRAIG      CLOUDY    52  50  93 N12G22    30.46R
JAX CECIL      CLOUDY    50  48  93 N10       30.46R FOG
FERNANDINA BEA CLOUDY    54  52  94 N17G25    30.44S
ST AUGUSTINE   LGT RAIN  56  55  97 N12       30.43F FOG

STATION/POSITION SKY/WX   TEMP    WIND        PRES    WAVE   SWELL
                          AIR SEA DIR/SP/G            HT/PER HT/PER
                          (F)     (DEG/KT/KT) (MB)    (FT/S) (FT/S)
SHELL POINT      NOT AVBL
KEATON BEACH               49      50/ 12/ 16 1030.4R
CEDAR KEY                  55      60/ 15/ 16 1029.6R
FERNANDINA                 50 54   20/ 10/ 19 1030.7R
30.7N   81.3W                 52                N/A     8/ 8   2/11
MAYPORT                    53 54   30/ 18/ 22 1030.5S
31.4N   80.9W              53 52   40/ 21/ 27 1031.6F   9/ 8
ST AUGUSTINE               54     350/ 12/ 13 1030.4F

$$
FLZ040-043>046-052-053-057-058-063-144-010400-
INTERIOR CENTRAL FLORIDA

CITY           SKY/WX    TMP DP  RH WIND       PRES   REMARKS
OCALA          CLOUDY    55  52  88 NE7       30.41R
THE VILLAGES     N/A     61  61 100 N7        30.29S FOG
LEESBURG       CLOUDY    63  62  97 NE10      30.39S
SANFORD        CLOUDY    65  63  93 NE6       30.39R
ORLANDO EXEC   LGT RAIN  66  64  93 NE7       30.38R
ORLANDO INTL   LGT RAIN  67  65  93 NE7       30.38R
KISSIMMEE      CLOUDY    66  66 100 NE5       30.38R
WINTER HAVEN   CLOUDY    66  64  93 E10       30.37S
LAKELAND       CLOUDY    64  63  94 E9        30.36R
BARTOW         MOCLDY    64  64 100 NE8       30.36R
OKEECHOBEE     RAIN      68  68 100 E7        30.33R

$$
FLZ041-047-054-059-064-141-147-010400-
EAST CENTRAL FLORIDA

CITY           SKY/WX    TMP DP  RH WIND       PRES   REMARKS
DAYTONA BEACH  RAIN      63  62  97 NE6       30.41R FOG
DELAND         CLOUDY   N/A N/A N/A N7        30.41R
NEW SMYRNA BEA RAIN      63  63 100 N9        30.40R FOG
JFK SPACE CTR  CLOUDY    67  63  88 E10       30.36S
CAPE CANAVERAL CLOUDY    68  63  83 E8        30.36R
PATRICK AFB    MOCLDY    67  65  92 E13       30.36R
MELBOURNE      MOCLDY    69  65  86 E13       30.36R
VERO BEACH     CLOUDY    71  65  81 E13       30.34R
FT PIERCE      CLOUDY    72  67  84 E14       30.33R
STUART         CLOUDY    70  66  88 E16       30.33R

STATION/POSITION SKY/WX   TEMP    WIND        PRES    WAVE   SWELL
                          AIR SEA DIR/SP/G            HT/PER HT/PER
                          (F)     (DEG/KT/KT) (MB)    (FT/S) (FT/S)
28.5N   80.2W              71 69   80/ 19/ 23 1028.1R
28.9N   78.5W              71 73   80/ 25/ 29 1028.8F  10/ 8   7/ 8
TRIDENT PIER     NOT AVBL
28.4N   80.5W                 62                N/A     5/ 8
27.6N   80.2W                 70                N/A     7/ 7   2/11

$$
FLZ050-056-061-142-242-148-248-149-249-151-251-155-255-
160-260-010400-
WEST CENTRAL FLORIDA

CITY           SKY/WX    TMP DP  RH WIND       PRES   REMARKS
CRYSTAL RIVER  CLOUDY    59  55  88 NE6       30.39R
INVERNESS      CLOUDY    61  46  59 NE8       30.39R
BROOKSVILLE    LGT RAIN  65  63  93 NE9       30.38R
ZEPHYRHILLS    CLOUDY    63  63 100 CALM      30.37R
CLEARWATER     CLOUDY    66  64  93 E9        30.35R
TAMPA INTL     CLOUDY    67  64  90 NE7       30.36R
TAMPA EXEC     DRIZZLE   68  64  88 E3        30.36R
PLANT CITY     DRIZZLE  N/A N/A N/A E8        30.37R
MACDILL AFB    CLOUDY    66  66 100 NE12      30.34R
PETER O KNIGHT CLOUDY    68  68 100 NE6       30.35S
ST PETERSBURG  CLOUDY    66  63  90 NE10      30.33S
SARASOTA       PTCLDY    67  64  90 E10       30.32R
VENICE         CLOUDY    68  66  94 NE14      30.32S

STATION/POSITION SKY/WX   TEMP    WIND        PRES    WAVE   SWELL
                          AIR SEA DIR/SP/G            HT/PER HT/PER
                          (F)     (DEG/KT/KT) (MB)    (FT/S) (FT/S)
CEDAR KEY                  55      60/ 15/ 16 1029.6R
28.5N   84.5W              60 65   70/ 21/ 25 1027.1F   6/ 7
27.3N   84.3W                 69                N/A     5/ 5
CLEARWATER BEACH           67 61   70/ 11/ 14 1027.2R
MIDDLE TAMPA BAY           64      50/ 10/ 10 1027.5R
VENICE                     68 62   50/ 11/ 14 1026.0R

$$
FLZ066-069-070-075>078-162-262-165-265-010400-
SOUTHWEST FLORIDA AND KEYS

CITY           SKY/WX    TMP DP  RH WIND       PRES   REMARKS
PUNTA GORDA    RAIN      67  66  97 NE8       30.34R FOG
FT MYERS       CLOUDY    70  69  97 NE8       30.30R
SOUTHWEST INTL CLOUDY    70  68  93 N7        30.30R
NAPLES         CLOUDY    70  69  97 NE8       30.28R
MARCO ISLAND   CLOUDY    70  66  88 NE7       30.27S
IMMOKALEE      CLOUDY   N/A N/A N/A E7        30.30R
MARATHON       CLEAR     76  74  93 E10       30.24R
KEY WEST NAS   PTCLDY    76  72  87 E15       30.24R
KEY WEST INTL  CLEAR     76  72  87 E9        30.24R

STATION/POSITION SKY/WX   TEMP    WIND        PRES    WAVE   SWELL
                          AIR SEA DIR/SP/G            HT/PER HT/PER
                          (F)     (DEG/KT/KT) (MB)    (FT/S) (FT/S)
VENICE                     68 62   50/ 11/ 14 1026.0R
NAPLES                     70 66   50/  4/  6 1025.1R
26.0N   85.6W              73 78   70/ 14/ 17 1024.5R   4/ 7
DRY TORTUGAS               71      40/ 14/ 15 1023.5R
SAND KEY                   75      80/ 14/ 16 1023.8R
SOMBRERO KEY               75      70/ 17/ 18 1024.5R
LONG KEY                   76 77   90/ 18/ 19 1025.1R
MOLASSES REEF              76 76   80/ 20/ 21 1024.1R

$$
FLZ067-068-071>074-168-172>174-010400-
SOUTHEAST FLORIDA

CITY           SKY/WX    TMP DP  RH WIND       PRES   REMARKS
W PALM BEACH   CLOUDY    74  69  85 E18       30.30R
FT LAUDER-EXEC PTCLDY    74  71  91 E14G21    30.30R
FT LAUDERDALE  MOCLDY    73  72  96 E12       30.29R
POMPANO BEACH  PTCLDY    74  69  85 E15G22    30.30R
PEMBROKE PINES CLOUDY    74  70  87 E10       30.30R
OPA LOCKA      CLOUDY    72  70  93 E9        30.29R
MIAMI          CLOUDY    76  70  82 E12       30.29R
WEST KENDALL   CLOUDY    74  71  91 E13       30.28R
HOMESTEAD      PTCLDY    75  71  85 E13G21    30.27R

STATION/POSITION SKY/WX   TEMP    WIND        PRES    WAVE   SWELL
                          AIR SEA DIR/SP/G            HT/PER HT/PER
                          (F)     (DEG/KT/KT) (MB)    (FT/S) (FT/S)
PORT EVERGLADES            75      60/ 16/ 21 1025.6
VIRGINIA KEY               75 75   80/ 15/ 20 1024.7R
LAKE WORTH                 74 73   70/ 21/ 24 1025.8R
SETTLEMENT POINT           73      80/ 22/ 24 1027.1R

$$



USA.gov is the U.S. government's official web portal to all federal, state and local government web resources and services.